Terminal Aerodrome Forecast
Issued by NWS Portland, OR

Home | Current Version | Previous Version | Text Only | Print | Product List | Glossary On
Versions: 1 2 3 4 5 6 7 8 9 10 11 12 13 14 15 16 17 18 19 20
000
FTUS46 KPQR 301609 AAC
TAFEUG
TAF AMD
KEUG 301609Z 3016/3112 00000KT 1/4SM FG OVC002
     FM302000 17004KT 4SM -RA BR SCT015 OVC050
     FM302300 19004KT 6SM -RA OVC050
     FM310400 VRB04KT 4SM -RA BR BKN015 OVC035=

USA.gov is the U.S. government's official web portal to all federal, state and local government web resources and services.